IRIDIUM 106 1 41917U 17003A 25347.23215579 .00000047 00000+0 96640-5 0 9998 2 41917 86.3984 166.2484 0002319 99.6779 260.4679 14.34217869466550 IRIDIUM 103 1 41918U 17003B 25347.01015490 .00000191 00000+0 61239-4 0 9990 2 41918 86.3984 166.2417 0001570 96.3197 263.8178 14.34217422466548 IRIDIUM 109 1 41919U 17003C 25347.22582435 .00000156 00000+0 48663-4 0 9999 2 41919 86.3987 166.2078 0001876 92.0024 268.1387 14.34220106466549 IRIDIUM 102 1 41920U 17003D 25347.05455968 .00000149 00000+0 46221-4 0 9992 2 41920 86.3985 166.2072 0001991 87.5406 272.6018 14.34217992466601 IRIDIUM 105 1 41921U 17003E 25347.30437379 .00000539 00000+0 18555-3 0 9998 2 41921 86.3976 134.5955 0001883 94.2902 265.8510 14.34218287468494 IRIDIUM 104 1 41922U 17003F 25347.20678361 .00000072 00000+0 18478-4 0 9993 2 41922 86.3986 166.1833 0001675 85.3162 274.8225 14.34217925466613 IRIDIUM 114 1 41923U 17003G 25347.21311501 .00000168 00000+0 52955-4 0 9999 2 41923 86.3984 166.1642 0001782 89.8607 270.2794 14.34217289466593 IRIDIUM 108 1 41924U 17003H 25347.17164753 .00000088 00000+0 24424-4 0 9991 2 41924 86.3971 134.5410 0002097 90.6394 269.5042 14.34218166468443 IRIDIUM 112 1 41925U 17003J 25347.20043994 .00000062 00000+0 15030-4 0 9994 2 41925 86.3981 166.0206 0001861 86.3212 273.8197 14.34217621466618 IRIDIUM 111 1 41926U 17003K 25347.25752553 .00000017 00000+0 -88405-6 0 9997 2 41926 86.3989 166.0629 0001827 93.5935 266.5470 14.34217627466608 IRIDIUM 113 1 42803U 17039A 25347.23748993 .00000147 00000+0 45360-4 0 9996 2 42803 86.3975 39.8876 0002007 94.4545 265.6880 14.34218473444530 IRIDIUM 123 1 42804U 17039B 25347.27896741 .00000411 00000+0 13981-3 0 9993 2 42804 86.3964 71.3538 0002074 104.5331 255.6095 14.34220164443306 IRIDIUM 120 1 42805U 17039C 25347.23114819 .00000320 00000+0 10714-3 0 9999 2 42805 86.3963 39.6959 0002507 98.2867 261.8613 14.34218168444525 IRIDIUM 115 1 42806U 17039D 25347.24258839 .00000378 00000+0 10641-3 0 9994 2 42806 86.4501 39.7953 0002461 107.1192 253.0278 14.43277776447444 IRIDIUM 118 1 42807U 17039E 25347.31067434 .00000315 00000+0 10538-3 0 9998 2 42807 86.3968 71.3396 0001964 95.5021 264.6399 14.34216338443302 IRIDIUM 117 1 42808U 17039F 25347.25994012 .00000317 00000+0 10616-3 0 9992 2 42808 86.3972 71.3205 0001996 102.2437 257.8983 14.34218258443327 IRIDIUM 126 1 42809U 17039G 25347.14577375 .00000312 00000+0 10449-3 0 9999 2 42809 86.3968 71.4163 0001903 99.0758 261.0653 14.34218591443280 IRIDIUM 124 1 42810U 17039H 25347.31507259 .00000597 00000+0 17151-3 0 9996 2 42810 86.4494 8.0667 0002283 97.1607 262.9853 14.43278306448306 IRIDIUM 128 1 42811U 17039J 25347.20628155 .00000429 00000+0 14628-3 0 9994 2 42811 86.3964 102.9250 0002316 98.5886 261.5573 14.34217337443329 IRIDIUM 121 1 42812U 17039K 25347.30434027 -.00000150 00000+0 -60749-4 0 9998 2 42812 86.3964 71.3763 0002219 95.1676 264.9773 14.34217127443180 IRIDIUM 133 1 42955U 17061A 25347.30777450 .00000500 00000+0 17162-3 0 9998 2 42955 86.3967 102.9955 0002081 97.5853 262.5579 14.34217566428138 IRIDIUM 100 1 42956U 17061B 25347.30141529 .00000104 00000+0 30211-4 0 9992 2 42956 86.3962 102.9210 0001966 97.6091 262.5328 14.34216550428138 IRIDIUM 122 1 42957U 17061C 25347.26970619 .00000144 00000+0 44453-4 0 9995 2 42957 86.3967 102.9344 0001922 98.8137 261.3276 14.34218145428139 IRIDIUM 129 1 42958U 17061D 25347.29507590 .00000440 00000+0 15017-3 0 9995 2 42958 86.3964 102.9884 0001804 86.7853 273.3549 14.34219191428156 IRIDIUM 119 1 42959U 17061E 25347.26336075 .00000493 00000+0 16910-3 0 9992 2 42959 86.3967 102.9967 0001784 95.7046 264.4353 14.34221254428161 IRIDIUM 107 1 42960U 17061F 25347.28239140 .00000258 00000+0 85223-4 0 9994 2 42960 86.3971 103.0090 0001934 105.8821 254.2588 14.34217622428170 IRIDIUM 132 1 42961U 17061G 25347.28872863 .00000599 00000+0 20684-3 0 9997 2 42961 86.3963 102.9869 0001993 100.7576 259.3844 14.34217076428174 IRIDIUM 136 1 42962U 17061H 25347.32044648 .00000392 00000+0 13290-3 0 9991 2 42962 86.3963 102.9794 0001877 96.5846 263.5563 14.34216672428193 IRIDIUM 139 1 42963U 17061J 25347.32678817 .00000226 00000+0 73750-4 0 9997 2 42963 86.3969 103.0359 0002048 100.9224 259.2202 14.34219610428209 IRIDIUM 125 1 42964U 17061K 25347.31407473 .00000314 00000+0 10525-3 0 9993 2 42964 86.3967 103.0986 0001558 108.1014 252.0352 14.34213737428218 IRIDIUM 135 1 43070U 17083A 25347.21845096 .00000276 00000+0 91607-4 0 9990 2 43070 86.3968 39.7441 0002220 93.1583 266.9867 14.34221797417498 IRIDIUM 138 1 43071U 17083B 25347.24383192 .00000056 00000+0 12803-4 0 9995 2 43071 86.3984 39.4005 0001787 92.5892 267.5509 14.34218090417484 IRIDIUM 116 1 43072U 17083C 25347.21211869 .00000346 00000+0 11631-3 0 9993 2 43072 86.3970 39.7351 0002465 96.7562 263.3914 14.34216834417513 IRIDIUM 130 1 43073U 17083D 25347.25018105 .00000403 00000+0 13669-3 0 9993 2 43073 86.3976 39.9765 0002415 101.6780 258.4687 14.34218136417467 IRIDIUM 151 1 43074U 17083E 25347.22480530 .00000137 00000+0 41966-4 0 9992 2 43074 86.3971 39.7834 0002213 94.8133 265.3316 14.34218227417488 IRIDIUM 134 1 43075U 17083F 25346.91400880 -.00000166 00000+0 -66398-4 0 9998 2 43075 86.3966 39.9187 0001996 100.5582 259.5838 14.34215479417408 IRIDIUM 137 1 43076U 17083G 25347.20577882 .00000159 00000+0 49759-4 0 9991 2 43076 86.3973 39.8858 0002673 89.9797 270.1705 14.34217445417511 IRIDIUM 141 1 43077U 17083H 25347.19943396 .00000137 00000+0 41902-4 0 9995 2 43077 86.3972 39.7297 0001959 95.5838 264.5582 14.34217548417516 IRIDIUM 153 1 43078U 17083J 25347.15161273 .00000049 00000+0 10584-4 0 9992 2 43078 86.3974 8.2403 0001831 96.1218 264.0187 14.34218690418614 IRIDIUM 131 1 43079U 17083K 25347.25651794 .00000075 00000+0 19743-4 0 9991 2 43079 86.3974 39.8794 0002086 94.0441 266.0993 14.34218193417452 IRIDIUM 144 1 43249U 18030A 25347.29749371 .00000063 00000+0 15488-4 0 9995 2 43249 86.3968 8.1126 0002345 95.5734 264.5729 14.34217914403490 IRIDIUM 149 1 43250U 18030B 25347.30383555 .00000243 00000+0 79703-4 0 9997 2 43250 86.3965 8.0788 0002187 93.7264 266.4182 14.34218708403513 IRIDIUM 157 1 43251U 18030C 25347.11355775 .00000404 00000+0 13733-3 0 9999 2 43251 86.3971 8.2077 0002213 88.2857 271.8593 14.34219204403463 IRIDIUM 140 1 43252U 18030D 25347.34189112 .00000184 00000+0 58713-4 0 9998 2 43252 86.3971 8.1252 0002226 95.0922 265.0528 14.34217086403550 IRIDIUM 145 1 43253U 18030E 25347.32920168 .00000397 00000+0 13467-3 0 9993 2 43253 86.3971 8.1032 0002537 97.1564 262.9921 14.34221020403485 IRIDIUM 146 1 43254U 18030F 25347.31017646 .00000293 00000+0 97505-4 0 9992 2 43254 86.3973 8.1242 0002349 95.0679 265.0785 14.34219691403490 IRIDIUM 148 1 43255U 18030G 25347.13892684 .00000193 00000+0 61833-4 0 9990 2 43255 86.3972 8.2359 0002274 90.2833 269.8623 14.34217036403502 IRIDIUM 142 1 43256U 18030H 25347.10721602 .00000105 00000+0 30373-4 0 9997 2 43256 86.3970 8.1449 0002626 97.3824 262.7670 14.34218089403467 IRIDIUM 150 1 43257U 18030J 25347.14526889 .00000383 00000+0 12953-3 0 9993 2 43257 86.3973 8.2392 0002372 95.6533 264.4933 14.34219698403496 IRIDIUM 143 1 43258U 18030K 25347.33554574 .00000391 00000+0 13271-3 0 9990 2 43258 86.3974 8.2449 0002478 96.4766 263.6712 14.34220199403455 IRIDIUM 161 1 43478U 18047C 25347.22368332 .00000221 00000+0 59639-4 0 9996 2 43478 86.4505 166.1782 0001887 85.3016 274.8400 14.43279676398312 IRIDIUM 152 1 43479U 18047D 25347.02919064 .00000007 00000+0 -45619-5 0 9996 2 43479 86.3986 166.1199 0001709 89.1014 271.0378 14.34218003395801 IRIDIUM 147 1 43480U 18047E 25347.03553275 .00000091 00000+0 25538-4 0 9996 2 43480 86.3982 166.1192 0002016 86.2452 273.8974 14.34217748395805 IRIDIUM 110 1 43481U 18047F 25347.25117875 .00000102 00000+0 29383-4 0 9998 2 43481 86.3984 166.1159 0001649 77.8477 282.2903 14.34217759395825 IRIDIUM 162 1 43482U 18047G 25347.07871609 .00000260 00000+0 71213-4 0 9995 2 43482 86.4503 166.1322 0001760 96.5100 263.6301 14.43277831398286 IRIDIUM 160 1 43569U 18061A 25347.26678667 .00000199 00000+0 63974-4 0 9993 2 43569 86.3978 134.5319 0001872 87.4454 272.6956 14.34218752386726 IRIDIUM 166 1 43570U 18061B 25347.29215679 .00000193 00000+0 61926-4 0 9997 2 43570 86.3972 134.4740 0002119 92.5429 267.6010 14.34217194386750 IRIDIUM 158 1 43571U 18061C 25347.33020905 .00000100 00000+0 28788-4 0 9996 2 43571 86.3971 134.4681 0001741 97.5442 262.5951 14.34219972386725 IRIDIUM 165 1 43572U 18061D 25346.86720086 .00000443 00000+0 15117-3 0 9992 2 43572 86.3975 134.7043 0002124 91.9515 268.1924 14.34219718386685 IRIDIUM 155 1 43573U 18061E 25347.31752765 .00000232 00000+0 75825-4 0 9992 2 43573 86.3975 134.3948 0002063 99.7467 260.3962 14.34218443386714 IRIDIUM 154 1 43574U 18061F 25347.15896540 .00000485 00000+0 16607-3 0 9997 2 43574 86.3976 134.5851 0002036 92.2513 267.8916 14.34223523386740 IRIDIUM 163 1 43575U 18061G 25347.27946869 .00000483 00000+0 16551-3 0 9997 2 43575 86.3970 134.4559 0001809 93.3914 266.7489 14.34216022386731 IRIDIUM 156 1 43576U 18061H 25347.32386759 .00000492 00000+0 16868-3 0 9991 2 43576 86.3972 134.4445 0002113 99.2381 260.9054 14.34220839386735 IRIDIUM 164 1 43577U 18061J 25347.16529430 .00000385 00000+0 13045-3 0 9994 2 43577 86.3975 134.5482 0002133 91.7187 268.4253 14.34224329386758 IRIDIUM 159 1 43578U 18061K 25347.13359236 .00000447 00000+0 15265-3 0 9992 2 43578 86.3971 134.5019 0001986 89.4972 270.6452 14.34218192386715 IRIDIUM 180 1 43922U 19002A 25347.27262639 .00000115 00000+0 33848-4 0 9996 2 43922 86.3966 71.3182 0001994 92.5210 267.6215 14.34218195362349 IRIDIUM 176 1 43923U 19002B 25347.26732150 .00001765 00000+0 27607-3 0 9993 2 43923 86.6086 71.2913 0002276 94.9469 265.2008 14.72246222371891 IRIDIUM 168 1 43924U 19002C 25347.26627925 .00000468 00000+0 16006-3 0 9997 2 43924 86.3967 71.3932 0002036 97.3514 262.7913 14.34221130362325 IRIDIUM 173 1 43925U 19002D 25347.32336514 .00000274 00000+0 90748-4 0 9997 2 43925 86.3967 71.2658 0001948 102.0839 258.0576 14.34217518362312 IRIDIUM 169 1 43926U 19002E 25347.32967201 .00000649 00000+0 20583-3 0 9996 2 43926 86.4219 102.9142 0001955 127.0868 233.0510 14.38606019363506 IRIDIUM 172 1 43927U 19002F 25347.31702224 .00000269 00000+0 89092-4 0 9997 2 43927 86.3965 71.2758 0001956 93.1104 267.0316 14.34219312362324 IRIDIUM 175 1 43928U 19002G 25347.33054913 .00001445 00000+0 22514-3 0 9997 2 43928 86.1505 13.6371 0003177 91.6095 268.5485 14.72248985371898 IRIDIUM 171 1 43929U 19002H 25347.29799655 .00000315 00000+0 10550-3 0 9994 2 43929 86.3975 71.5698 0002328 99.8469 260.2990 14.34217991362317 IRIDIUM 170 1 43930U 19002J 25347.27348695 .00001704 00000+0 26624-3 0 9990 2 43930 86.6087 71.2923 0002240 90.9127 269.2347 14.72264614371906 IRIDIUM 167 1 43931U 19002K 25347.29165467 .00000122 00000+0 36653-4 0 9994 2 43931 86.3966 71.3073 0002431 106.7144 253.4319 14.34218270362318 IRIDIUM 181 1 56726U 23068S 25347.16503025 .00000643 00000+0 18499-3 0 9994 2 56726 86.4510 134.5479 0002415 85.4929 274.6548 14.43306812135607 IRIDIUM 177 1 56727U 23068T 25347.28294207 .00001771 00000+0 22963-3 0 9991 2 56727 86.1966 57.0721 0002361 84.0475 276.1015 14.80224128138867 IRIDIUM 174 1 56728U 23068U 25347.26112979 .00003019 00000+0 47473-3 0 9995 2 56728 86.6093 71.4264 0002257 88.3244 271.8232 14.72253344138665 IRIDIUM 178 1 56729U 23068V 25347.27205714 .00001356 00000+0 17505-3 0 9992 2 56729 86.6537 103.0764 0002383 98.0248 262.1244 14.80236365138869 IRIDIUM 179 1 56730U 23068W 25347.33428844 .00001106 00000+0 14211-3 0 9996 2 56730 86.6776 111.4751 0002343 89.0864 271.0626 14.80225010138874